Home > Weather > Kongsvinger > Past weeks

Flag for Norway Weather for the Past 2 Weeks in Kongsvinger, Norway

Now
39 °F

Drizzle. Low clouds.


Feels Like: 30 °F
Forecast: 36 / 39 °F
Wind: 17 mph from South

Location: Oslo Gardermoen Airport

Current Time: Feb 7, 2016 at 5:57:49 AM

Latest Report: Feb 7, 2016 at 4:50 AM


Visibility: 6 mi

Pressure: 29.24 "Hg

Humidity: 93%

Dew point: 37 °F

Location of KongsvingerLocation

Historic Weather in Kongsvinger — Graph

°F

Kongsvinger Temperature Yesterday

Maximum temperature yesterday: 39 °F (at 10:50 AM)
Minimum temperature yesterday: 30 °F (at 12:20 AM)
Average temperature yesterday: 35 °F

High & Low Weather Summary for the Past Weeks

 TemperatureHumidityPressure
High41 °F (Jan 29, 4:50 PM)100% (Jan 25, 10:20 AM)30.15 "Hg (Jan 25, 10:20 AM)
Low16 °F (Jan 23, 4:20 AM)38% (Feb 4, 1:20 PM)28.77 "Hg (Feb 2, 4:50 PM)
Average31 °F81%29.43 "Hg
* Reported Jan 23 4:20 AM — Feb 7 4:20 AM, Kongsvinger, Weather by CustomWeather, © 2016

Note: Actual official high and low records may vary slightly from our data, if they occured in-between our weather recording intervals... More about our weather records

Advertising

Kongsvinger Weather History for the Previous 24 Hours

 ConditionsComfort  
Time TempWeatherWind HumidityBarometerVisibility
4:20 AM
Sun, Feb 7
39 °FDrizzle. Low clouds.21 mph93%29.27 "Hg4 mi
3:50 AM37 °FPassing clouds.20 mph100%29.27 "Hg4 mi
3:20 AM37 °FLight rain. Fog.15 mph93%29.27 "Hg3 mi
2:50 AM34 °FLight rain. Fog.2 mph93%29.27 "Hg2 mi
2:20 AM34 °FLight rain. Fog.No wind93%29.30 "Hg2 mi
1:50 AM34 °FRain. Passing clouds.No wind100%29.30 "Hg4 mi
1:20 AM34 °FRain. Passing clouds.No wind100%29.33 "Hg6 mi
12:50 AM34 °FLight rain. Partly cloudy.3 mph100%29.36 "Hg3 mi
11:50 PM
Sat, Feb 6
36 °FLight rain. Passing clouds.6 mph93%29.39 "Hg6 mi
11:20 PM36 °FLight rain. Passing clouds.7 mph93%29.39 "Hg6 mi
10:50 PM36 °FLight rain. Passing clouds.6 mph93%29.42 "Hg6 mi
9:50 PM36 °FLow clouds.8 mph93%29.45 "Hg5 mi
9:20 PM36 °FLow clouds.6 mph93%29.45 "Hg4 mi
8:50 PM36 °FPartly cloudy.7 mph93%29.45 "Hg5 mi
8:20 PM36 °FPartly cloudy.6 mph93%29.45 "HgN/A
7:50 PM36 °FPartly cloudy.7 mph93%29.45 "HgN/A
7:20 PM36 °FPassing clouds.12 mph93%29.45 "HgN/A
6:50 PM37 °FPassing clouds.13 mph87%29.45 "HgN/A
6:20 PM37 °FPartly cloudy.8 mph93%29.45 "HgN/A
5:50 PM37 °FPassing clouds.6 mph93%29.45 "HgN/A
5:20 PM37 °FPassing clouds.5 mph93%29.45 "HgN/A
4:50 PM39 °FPassing clouds.9 mph87%29.45 "HgN/A
4:20 PM37 °FPartly sunny.8 mph93%29.45 "HgN/A
3:50 PM37 °FPartly sunny.9 mph93%29.42 "HgN/A
3:20 PM37 °FPartly sunny.10 mph100%29.42 "HgN/A
2:50 PM39 °FPartly sunny.12 mph93%29.42 "HgN/A
2:20 PM37 °FPartly sunny.15 mph93%29.42 "HgN/A
1:50 PM39 °FLow clouds.15 mph93%29.42 "HgN/A
1:20 PM39 °FLow clouds.9 mph93%29.42 "HgN/A
12:50 PM37 °FBroken clouds.8 mph93%29.42 "Hg6 mi
12:20 PM37 °FPartly sunny.13 mph93%29.39 "Hg4 mi
11:50 AM37 °FLight rain. Fog.14 mph93%29.39 "Hg2 mi
11:20 AM39 °FLight rain. Partly sunny.15 mph93%29.39 "HgN/A
10:50 AM39 °FLight rain. Partly sunny.21 mph93%29.39 "HgN/A
10:20 AM37 °FLight rain. Broken clouds.17 mph100%29.39 "HgN/A
9:50 AM37 °FLight rain. Partly sunny.18 mph100%29.39 "Hg6 mi
9:20 AM37 °FLight rain. Broken clouds.16 mph100%29.39 "Hg5 mi
8:50 AM37 °FDrizzle. Fog.12 mph93%29.42 "Hg1 mi
8:20 AM36 °FSnow. Cloudy.7 mph93%29.42 "Hg1 mi
7:50 AM32 °FMixture of precip. Ice fog.No wind93%29.45 "Hg2 mi
7:20 AM32 °FLight rain. Ice fog.No wind100%29.45 "Hg1 mi
6:50 AM32 °FMixture of precip. Ice fog.2 mph93%29.47 "Hg3 mi
6:20 AM32 °FMixture of precip. Ice fog.No wind93%29.47 "Hg2 mi
5:50 AM32 °FLight freezing rain. Ice fog.No wind93%29.50 "Hg1 mi
Weather by CustomWeather, © 2016

See weather overviewHow to use our weather pages